Location: Bernay
(48.6766°N, 2.9386°E)
Time: 23:46:44
(UTC+00:00)

UNK - Visible Passes

Search period start: 18 April 2026 00:00
Search period end: 28 April 2026 00:00
Orbit: 654 x 672 km, 98.4° (Epoch: 18 April)

Date Brightness Start Highest point End Pass type
(mag) Time Alt. Az. Time Alt. Az. Time Alt. Az.
18 Apr 6.5 03:06:32 10° ESE 03:09:59 21° ENE 03:13:25 10° NNE visible
19 Apr 5.5 03:36:00 10° SE 03:40:13 37° ENE 03:44:26 10° N visible
20 Apr 7.2 02:33:13 10° ENE 02:34:30 11° NE 02:35:45 10° NE visible
20 Apr 4.2 04:06:01 10° SSE 04:10:34 70° ENE 04:15:09 10° N visible
21 Apr 6.7 03:01:21 10° ESE 03:04:34 19° ENE 03:07:47 10° NNE visible
22 Apr 5.7 03:30:41 10° SE 03:34:47 33° ENE 03:38:52 10° N visible
23 Apr 4.4 04:00:36 10° SSE 04:05:06 61° ENE 04:09:38 10° N visible
24 Apr 6.8 02:56:12 10° E 02:59:10 17° ENE 03:02:07 10° NNE visible
25 Apr 6.0 03:25:23 10° SE 03:29:21 29° ENE 03:33:17 10° N visible
26 Apr 4.7 03:55:12 10° SSE 03:59:39 54° ENE 04:04:06 10° N visible
27 Apr 6.9 02:51:05 10° E 02:53:44 15° ENE 02:56:23 10° NNE visible
27 Apr 7.6 19:32:05 10° NW 19:32:35 10° NW 19:33:05 10° WNW visible
